User: anonymous   Login
Location: Six Mile Lake
(44.9000°N, 79.7170°W)
Time: 06:01:03
(UTC-04:00)
Language:

PRISM - Orbit

View from above orbital plane
View from above orbital plane
View from above satellite
View from above satellite

Ground track
Ground track

The orbit data is extracted from the following two-line orbital elements,

1 33493U 09002B   22179.88629969  .00002221  00000-0  18411-3 0  9996
2 33493  98.2251 167.1075 0016245 132.4783 227.7815 14.99886272730697
Epoch (UTC): 28 June 2022 21:16:16
Eccentricity: 0.0016245
inclination: 98.2251°
perigee height: 556 km
apogee height: 578 km
right ascension of ascending node: 167.1075°
argument of perigee: 132.4783°
revolutions per day: 14.99886272
mean anomaly at epoch: 227.7815°
orbit number at epoch: 73069

The dashed part of the orbit path shows where the satellite is in the earth's shadow,  

DLR